This is the latest recevied weather packets stored in our database for station/object WD0REW. If no packets are shown the sender has not sent any weather packets the latest 10 day(s).
| Time | Temp. | Humidity | Pressure | Rain* | Wind** | Luminosity | Snow |
|---|---|---|---|---|---|---|---|
| 1778032745 | 7.22° C | 89% | 1012 hPa | 0 mm | - | 0 W/m² | - |
| 1778032442 | 7.22° C | 89% | 1011.6 hPa | 0 mm | - | 0 W/m² | - |
| 1778032139 | 7.22° C | 89% | 1011.7 hPa | 0 mm | - | 0 W/m² | - |
| 1778031836 | 7.22° C | 89% | 1011.5 hPa | 0 mm | - | 0 W/m² | - |
| 1778031532 | 7.22° C | 90% | 1011.5 hPa | 1.78 mm | - | 0 W/m² | - |
| 1778031230 | 7.22° C | 90% | 1011.4 hPa | 0 mm | - | 0 W/m² | - |
| 1778030926 | 7.22° C | 89% | 1011.4 hPa | 0 mm | - | 0 W/m² | - |
| 1778030623 | 7.22° C | 90% | 1011.3 hPa | 0 mm | - | 0 W/m² | - |
| 1778030320 | 7.22° C | 90% | 1011.3 hPa | 0 mm | - | 0 W/m² | - |
| 1778030017 | 7.22° C | 89% | 1011.3 hPa | 0 mm | - | 0 W/m² | - |
| 1778029714 | 7.22° C | 89% | 1011.2 hPa | 0 mm | - | 0 W/m² | - |
| 1778029412 | 7.22° C | 89% | 1011.3 hPa | 0 mm | - | 1 W/m² | - |
| 1778029109 | 7.78° C | 88% | 1011.3 hPa | 0 mm | - | 1 W/m² | - |
| 1778028806 | 7.78° C | 88% | 1011.3 hPa | 0 mm | - | 1 W/m² | - |
| 1778028502 | 7.78° C | 89% | 1011.3 hPa | 0 mm | - | 1 W/m² | - |
| 1778028200 | 7.78° C | 88% | 1011.3 hPa | 0 mm | - | 2 W/m² | - |
| 1778027895 | 7.78° C | 89% | 1010.9 hPa | 0 mm | - | 3 W/m² | - |
| 1778027592 | 7.78° C | 89% | 1010.8 hPa | 0 mm | - | 3 W/m² | - |
| 1778027288 | 7.78° C | 88% | 1010.7 hPa | 0 mm | - | 4 W/m² | - |
| 1778026985 | 7.78° C | 89% | 1010.7 hPa | 0 mm | - | 4 W/m² | - |
| 1778026680 | 7.78° C | 88% | 1010.6 hPa | 0 mm | - | 8 W/m² | - |
| 1778026378 | 7.78° C | 88% | 1010.7 hPa | 0 mm | - | 9 W/m² | - |
| 1778026075 | 7.78° C | 88% | 1010.5 hPa | 0 mm | - | 12 W/m² | - |
| 1778025772 | 7.78° C | 89% | 1010.7 hPa | 0 mm | - | 7 W/m² | - |
| 1778025469 | 7.78° C | 89% | 1010.4 hPa | 0 mm | - | 9 W/m² | - |
* Rain latest hour (hover to see other rain measurements)
** Current wind speed in m/s (hover to see current wind gust speed)